ONEWEB-0013, 45131

Orbit data source: Space-Track

ONEWEB-0013, 45131 is a payload satellite owned by One Web (UK) in LEO that was launched on Thu, 06 Feb 2020 UTC via a SOYUZ-2-1B launch vehicle from the Tyuratam Missile And Space Complex (TTMTR). Payload-class satellites include a variety of spacecraft equipped with specific instruments for various scientific and technological missions. These include communications satellites like Starlink; space stations such as the ISS; scientific satellites like the Hubble; Earth observation satellites from companies like Planet Labs, Umbra, and HawkEye 360; GPS; miniature CubeSats for education and research; and military/defense satellites.

Loading next visibility...
Identifier
45131, 2020-008A
Orbit
LEO
Country
Flag of UKUK
Related business
Manufacturer
One Web
Mission
Operational Commercial Communications
Bus & Motor
ARROW, Unknown motor
Mass
148 kg wet, ~140 kg dry
Launch date (UTC)
2020-02-06 (6 years ago)
Launch vehicle
SOYUZ-2-1B
Launch site
Tyuratam Missile And Space Complex (TTMTR)
Object type
Payload
Rocket body
Debris
Shape & HBR
Trap Box + 2 Pan, 6.7 m
Radar Cross Section
3.464 m², Large (>1 m²)

Expand to show TLE details & history
Last TLE update: 1 day ago

TLE from 1 day ago
0 ONEWEB-0013
1 45131U 20008A   25301.49059232  .00000012  00000-0 -30434-5 0  9992
2 45131  87.8471  99.6161 0000590 108.5157 251.6034 13.09440840275743
Epoch: 2025-10-28T11:46Z
TLE epoch observation values (Epoch: 2025-10-28T11:46:27.176Z)
Latitude
-0.00001°
Longitude
-114.07446°
Altitude
1,228.35 km
Speed
7.24 km/s
True Right ascension
06h 38m 27s
True Declination
0° 00' 00"
Sunlit
Object was in daylight at epoch
Visualization orbit readout
Latitude
Unknown
Longitude
Unknown
Altitude
Unknown
Speed
Unknown
Apparent Right ascension
Unknown
Apparent Declination
Unknown
Sunlit
N/A
Visualization observer readout
Local Sidereal Time
10:04:50
Azimuth
Unknown
Elevation
Unknown
Doppler factor
Unknown
Orbital elements
Apogee altitude
1,222.893 km
Perigee altitude
1,221.996 km
Semi-major axis
7,600.581 km
Eccentricity
0.00006
Inclination
87.8471°
RAAN
99.6161°
Arg. of periapsis
108.5157°
True anomaly
251.59698°
Mean anomaly
251.6034°
Eccentric anomaly
251.60019°
Mean motion
3.27546 °/min
Orbital period
109.91 mins
BSTAR
-0.0000030434
Loading maneuver chart data...
Computing Atmospheric mass density...
Loading historical data...
Loading historical data...
Loading historical data...
Loading historical data...
Loading historical data...
Loading historical data...
Loading historical data...

Documentation

Showing up to 5 results
|